Погода в Шедсму

Норвегия     59°57′23″N   11°03′02″E
темп.,
°C
ветер,
м/с
пор.,
м/с
влажн.,
%
обл.,
%
осадки,
мм/ч
давл.,
гПа
погр.,
м
14 августа, вс
вс1423:00+14ююз22875 0.0 101837
02:00+13ю119599 0.0 101815
05:00+12юв119676 0.0 101712
08:00+17ююв12750 0.0 1017204
11:00+23ююз354416 0.0 1016945
14:00+26ююз463499 0.0 10151598
17:00+26ююз463599 0.0 10141357
20:00+21ююз125593 0.0 101320
15 августа, пн
пн1523:00+18ю1161100 0.0 101311
02:00+16всв0067100 0.0 101211
05:00+15св117178 0.0 101211
08:00+18св126796 0.0 1012189
11:00+23юв2450100 0.0 10111093
14:00+27юв353376 0.0 10101938
17:00+25юв265484 0.1 1008384
20:00+24зюз005972 0.1 100711
16 августа, вт
вт1623:00+17св118918 0.9 100912
02:00+16св119886 2.5 100912
05:00+17св259877 3.8 1009289
08:00+17всв249585 4.8 1009340
11:00+20всв248347 1.9 1008641
14:00+24ююв367225 3.8 10061164
17:00+21зюз268554 7.0 1004228
20:00+18ююв1296100 12.6 100598
17 августа, ср
ср1723:00+18ююв2897100 0.3 1006513
02:00+17ю3996100 0.3 1006565
05:00+17ю3893100 0.0 1005607
08:00+17ю4989100 0.0 1006713
11:00+18ююз378099 0.0 1007849
14:00+20ююз237174 0.3 1009781
17:00+11ссв41091100 1.4 1014550
20:00+10ссв31190100 2.5 1016576
18 августа, чт
чт1823:00+10ссв41284100 0.2 1017583
02:00+8ссв3128398 0.2 1019472
05:00+6с278898 0.0 1020219
08:00+9ссв3770100 0.0 1021315
11:00+14ссв3454100 0.0 1020637
14:00+19всв2349100 0.0 1019988
17:00+21вюв2350100 0.0 10171338
20:00+16ююв2269100 0.0 101770